Weather History for Gainesville, FL

Change the Weather History Date:

Thursday, December 13, 2012

  Actual Average Record
Temperature  
Mean Temperature 54 °F 56 °F  
Max Temperature 59 °F 68 °F 85 °F (1948)
Min Temperature 48 °F 45 °F 13 °F (1962)
Degree Days  
Heating Degree Days 11 9  
Month to date heating degree days 21 106  
Since 1 July heating degree days 214 267  
Cooling Degree Days 0 1  
Month to date cooling degree days 17 13  
Year to date cooling degree days 2979 2629  
Growing Degree Days 4 (Base 50)    
Moisture  
Dew Point 51 °F    
Average Humidity 92    
Maximum Humidity 100    
Minimum Humidity 83    
Precipitation  
Precipitation T in 0.08 in 1.67 in (1963)
Month to date precipitation 4.54 0.98  
Year to date precipitation 53.85 45.91  
Snow  
Snow 0.00 in 0.00 in 0.00 in ()
Month to date snowfall 0.0 0.0  
Since 1 July snowfall 0.0 0.0  
Snow Depth 0.00 in    
Sea Level Pressure  
Sea Level Pressure 30.20 in    
Wind  
Wind Speed 8 mph (North)    
Max Wind Speed 13 mph    
Max Gust Speed 17 mph    
Visibility 7 miles    
Events Rain    
T = Trace of Precipitation, MM = Missing Value Source: NWS Daily Summary

Daily Weather History Graph

Daily Weather History Graph

Search for Another Location

Airport:

Trip Planner

Search our weather history database for the weather conditions in past years. The results will help you decide how hot, cold, wet, or windy it might be!

Date:

Astronomy

Dec. 13, 2012 Rise Set
Actual Time 7:15 AM EST 5:31 PM EST
Civil Twilight 6:49 AM EST 5:57 PM EST
Nautical Twilight 6:19 AM EST 6:27 PM EST
Astronomical Twilight 5:50 AM EST 6:56 PM EST
Moon 7:24 AM EST (12/13) 6:10 PM EST (12/13)
Length of Visible Light 11h 08m
Length of Day
10h 15m
New Moon, 0% of the Moon is Illuminated
Dec 13
New Moon
Dec 20
First Quarter
Dec 28
Full
Jan 4
Last Quarter
Jan 11
New

Hourly Weather History & Observations

Time (EST) Temp. Dew Point Humidity Pressure Visibility Wind Dir Wind Speed Gust Speed Precip Events Conditions
12:13 AM 59.0 °F 57.2 °F 94% 30.12 in 10.0 mi NW 8.1 mph - N/A   Overcast
12:53 AM 57.9 °F 57.0 °F 97% 30.12 in 10.0 mi NNW 6.9 mph - N/A   Overcast
1:53 AM 57.9 °F 57.0 °F 97% 30.11 in 2.0 mi NNW 5.8 mph - N/A   Overcast
2:01 AM 57.2 °F 57.2 °F 100% 30.11 in 1.5 mi North 6.9 mph - N/A   Overcast
2:53 AM 57.9 °F 57.0 °F 97% 30.11 in 1.8 mi NNW 5.8 mph - N/A   Overcast
3:01 AM 57.2 °F 55.4 °F 94% 30.11 in 2.0 mi NNW 9.2 mph - N/A   Overcast
3:53 AM 55.0 °F 54.0 °F 96% 30.12 in 2.5 mi NNW 8.1 mph - N/A   Overcast
4:02 AM 55.4 °F 53.6 °F 94% 30.12 in 3.0 mi NNW 10.4 mph - N/A   Overcast
4:53 AM 54.0 °F 53.1 °F 97% 30.13 in 5.0 mi NNW 6.9 mph - 0.00 in Rain Light Rain
5:53 AM 54.0 °F 53.1 °F 97% 30.14 in 8.0 mi North 5.8 mph - 0.00 in   Overcast
6:53 AM 53.1 °F 52.0 °F 96% 30.17 in 10.0 mi NNW 5.8 mph - N/A   Overcast
7:53 AM 53.1 °F 51.1 °F 93% 30.20 in 10.0 mi North 8.1 mph - N/A   Overcast
8:53 AM 53.1 °F 51.1 °F 93% 30.22 in 7.0 mi NNE 8.1 mph - N/A   Overcast
9:53 AM 53.1 °F 51.1 °F 93% 30.25 in 4.0 mi NNE 10.4 mph - N/A   Overcast
10:03 AM 53.6 °F 51.8 °F 94% 30.26 in 5.0 mi NNE 10.4 mph - N/A   Overcast
10:53 AM 54.0 °F 51.1 °F 90% 30.25 in 10.0 mi NNE 11.5 mph 17.3 mph N/A   Overcast
11:53 AM 54.0 °F 51.1 °F 90% 30.24 in 10.0 mi North 8.1 mph - N/A   Overcast
12:38 PM 53.6 °F 50.0 °F 88% 30.24 in 10.0 mi North 10.4 mph - N/A   Overcast
12:48 PM 53.6 °F 50.0 °F 88% 30.24 in 10.0 mi NNE 10.4 mph - N/A   Overcast
12:53 PM 54.0 °F 48.9 °F 83% 30.24 in 10.0 mi NNE 10.4 mph - N/A   Overcast
1:53 PM 53.1 °F 48.9 °F 86% 30.23 in 10.0 mi North 10.4 mph - N/A   Overcast
2:53 PM 52.0 °F 48.9 °F 89% 30.22 in 10.0 mi NNE 6.9 mph - N/A   Overcast
3:53 PM 53.1 °F 48.9 °F 86% 30.22 in 10.0 mi North 9.2 mph - N/A   Overcast
4:53 PM 52.0 °F 48.9 °F 89% 30.22 in 4.0 mi NNE 6.9 mph - N/A   Overcast
7:53 PM 48.9 °F 46.0 °F 90% 30.27 in 10.0 mi NE 9.2 mph - N/A   Overcast
8:53 PM 48.9 °F 46.0 °F 90% 30.28 in 7.0 mi NNE 8.1 mph - N/A   Overcast
9:53 PM 48.0 °F 46.0 °F 93% 30.29 in 6.0 mi NNE 8.1 mph - N/A   Overcast
10:53 PM 48.0 °F 46.0 °F 93% 30.28 in 4.0 mi North 4.6 mph - N/A   Overcast
11:53 PM 48.0 °F 46.0 °F 93% 30.28 in 6.0 mi North 6.9 mph - N/A   Overcast